Weather observations for the past three days for
Wilmington International Airport
Imperial (Metric)
Date Time (edt) Wind (mph) Vis. (mi.) Weather Sky Cond. Temperature (ºF) Relative Humidity Wind Chill (°F) Heat Index (°F) Pressure Precipitation (in)
Air Dwpt 6 hour altimeter (in) sea level (mb) 1 hr 3 hr 6 hr
Max. Min.
23 22:53 S 16 G 24 10.00 Overcast OVC017 82 73.9 77% 88 29.88 1011.9
23 21:53 S 9 G 23 10.00 Mostly Cloudy BKN017 81 73.9 79% 86 29.87 1011.3
23 20:53 S 16 G 22 10.00 A Few Clouds FEW018 81 73 77% 86 29.86 1011.0
23 19:53 S 13 G 22 10.00 Mostly Cloudy FEW022 BKN044 82.9 73.9 91.9 82.9 74% 89 29.87 1011.5
23 18:53 S 14 G 24 10.00 Partly Cloudy FEW026 SCT036 84 72 67% 90 29.88 1011.8
23 17:53 S 15 10.00 Partly Cloudy SCT027 SCT036 87.1 73 63% 95 29.88 1011.9
23 16:53 S 12 G 26 10.00 A Few Clouds FEW034 89.1 73 59% 97 29.89 1012.2
23 15:53 S 13 10.00 A Few Clouds FEW033 91 72 54% 99 29.9 1012.5
23 14:53 S 20 G 30 10.00 Partly Cloudy SCT036 89.1 72 57% 96 29.93 1013.4
23 13:53 S 15 G 25 10.00 Partly Cloudy SCT029 SCT035 91 72 91.9 82 54% 99 29.95 1014.0
23 12:53 S 14 G 22 10.00 Partly Cloudy SCT033 91 72 54% 99 29.96 1014.3
23 11:53 S 10 G 21 10.00 Mostly Cloudy FEW032 BKN045 BKN060 88 71.1 57% 94 29.97 1014.9
23 10:53 S 10 G 18 10.00 Mostly Cloudy FEW030 SCT039 BKN060 89.1 73 59% 97 29.98 1015.2
23 09:53 S 10 10.00 Partly Cloudy SCT029 88 73 61% 96 29.99 1015.5
23 08:53 S 7 10.00 A Few Clouds FEW019 84 73 70% 90 30 1016.0
23 07:53 S 9 10.00 Fair CLR 82 75 82 73.9 79% 89 30.01 1016.2
23 06:53 Calm 10.00 Fair CLR 75.9 73.9 94% 75 30.01 1016.1
23 05:53 Calm 3.00 Fog/Mist CLR 73.9 72 94% 30.01 1016.2
23 04:53 Calm 10.00 Fair CLR 75.9 72 88% 76 30.01 1016.3
23 03:53 SW 6 10.00 Fair CLR 78.1 73 85% 81 30.01 1016.2
23 02:53 S 7 10.00 Fair CLR 78.1 73.9 87% 81 30.02 1016.5
23 01:53 S 3 10.00 A Few Clouds FEW017 79 73.9 82.9 78.1 85% 83 30.03 1016.9
23 00:53 S 6 10.00 Fair CLR 79 73.9 85% 83 30.05 1017.4
22 23:53 S 6 10.00 Fair CLR 79 73.9 85% 83 30.06 1017.7
22 22:53 S 6 10.00 Fair CLR 80.1 73.9 82% 85 30.06 1017.8
22 21:53 S 8 10.00 Fair CLR 80.1 73.9 82% 85 30.05 1017.6
22 20:53 S 9 10.00 Fair CLR 81 73 77% 86 30.04 1017.3
22 19:53 S 10 10.00 Fair CLR 84 72 91.9 84 67% 90 30.04 1017.0
22 18:53 S 14 G 18 10.00 Fair CLR 86 72 63% 92 30.03 1016.7
22 17:53 S 10 10.00 A Few Clouds FEW033 89.1 71.1 55% 95 30.03 1016.9
22 16:53 S 13 10.00 Partly Cloudy SCT035 90 72 56% 97 30.04 1017.2
22 15:53 S 13 G 18 10.00 Partly Cloudy SCT036 90 72 56% 97 30.06 1017.8
22 14:53 S 8 10.00 Mostly Cloudy FEW025 SCT045 BKN085 88 75 66% 98 30.08 1018.5
22 13:53 SE 12 10.00 A Few Clouds FEW060 86 75.9 89.1 79 72% 96 30.1 1019.3 0.12
22 12:53 E 13 10.00 Light Rain FEW016 SCT060 BKN080 80.1 73.9 82% 85 30.12 1019.9 0.05
22 11:53 W 3 10.00 Partly Cloudy FEW026 SCT033 87.1 73 63% 95 30.14 1020.4
22 10:53 S 5 10.00 Mostly Cloudy SCT047 BKN055 BKN075 82.9 75 77% 90 30.15 1020.9 0.07 0.07
22 09:53 SW 5 10.00 Mostly Cloudy SCT026 SCT031 BKN043 84.9 73 68% 92 30.15 1020.9
22 08:53 S 7 10.00 Partly Cloudy FEW016 SCT031 84 73.9 72% 91 30.16 1021.1
22 07:53 Calm 10.00 Fair CLR 79 75.9 79 71.1 90% 83 30.14 1020.5
22 06:53 NE 3 0.25 Fog VV008 73 71.1 94% 30.14 1020.6
22 05:53 Calm 2.50 Fog/Mist OVC010 71.1 69.1 94% 30.14 1020.4
22 04:53 Calm 1.00 Fog/Mist VV012 71.1 69.1 94% 30.13 1020.2
22 03:53 Calm 10.00 Mostly Cloudy BKN014 72 70 94% 30.14 1020.5
22 02:53 NE 3 9.00 Fair CLR 73 71.1 94% 30.15 1020.9
22 01:53 Calm 10.00 Fair CLR 75 71.1 81 73.9 88% 75 30.16 1021.4
22 00:53 Calm 10.00 Fair CLR 78.1 73.9 87% 81 30.17 1021.6
21 23:53 SE 3 10.00 Fair CLR 79 75 88% 83 30.18 1021.9
21 22:53 SE 3 10.00 Fair CLR 79 73.9 85% 83 30.17 1021.7
21 21:53 S 6 10.00 Fair CLR 79 73.9 85% 83 30.16 1021.4
21 20:53 SE 6 10.00 Fair CLR 80.1 73.9 82% 85 30.15 1021.1
21 19:53 SE 8 10.00 Partly Cloudy SCT016 81 73 86 81 77% 86 30.16 1021.2
21 18:53 SE 9 10.00 Partly Cloudy SCT019 82.9 73 72% 89 30.16 1021.2
21 17:53 E 8 10.00 Partly Cloudy SCT023 84.9 73 68% 92 30.16 1021.2
21 16:53 E 8 10.00 Mostly Cloudy FEW019 SCT024 BKN029 84 73 70% 90 30.16 1021.4
21 15:53 E 9 10.00 Mostly Cloudy FEW019 BKN060 84 73 70% 90 30.18 1021.9
21 14:53 E 12 G 17 10.00 Light Rain BKN022 OVC030 82.9 73 72% 89 30.19 1022.4
21 13:53 E 7 7.00 Light Rain SCT017 SCT028 BKN038 82 73.9 82.9 73.9 77% 88 30.2 1022.7 0.02
21 12:53 E 8 10.00 Partly Cloudy FEW008 SCT060 81 73.9 79% 86 30.23 1023.5
21 11:53 NE 9 1.50 Light Rain Fog/Mist SCT007 BKN022 OVC045 78.1 75 90% 81 30.24 1023.9 0.02
21 10:53 NE 6 4.00 Light Rain BKN023 BKN027 OVC032 80.1 73 79% 84 30.23 1023.5
21 09:53 N 7 7.00 Overcast BKN020 OVC026 79 71.1 77% 82 30.22 1023.4
21 08:53 NE 5 10.00 Overcast FEW030 OVC038 79 69.1 72% 82 30.23 1023.6
21 07:53 NE 5 10.00 Partly Cloudy SCT034 73.9 66.9 75 66 79% 30.23 1023.5
21 06:53 NE 3 10.00 Fair CLR 69.1 64.9 87% 30.22 1023.3
21 05:53 NE 5 10.00 Fair CLR 66 62.1 87% 30.22 1023.3
21 04:53 NE 5 10.00 Fair CLR 66 62.1 87% 30.21 1023.0
21 03:53 Calm 10.00 Fair CLR 66.9 63 87% 30.22 1023.3
21 02:53 E 3 10.00 Fair CLR 70 64 82% 30.23 1023.7
21 01:53 E 5 10.00 Fair CLR 75 66 79 75 74% 76 30.25 1024.2
21 00:53 E 6 10.00 Fair CLR 75.9 66 72% 77 30.25 1024.4
20 23:53 E 6 10.00 Fair CLR 75.9 66.9 74% 77 30.26 1024.6
Date Time (edt) Wind (mph) Vis. (mi.) Weather Sky Cond. Air Dwpt Max. Min. Relative Humidity Wind Chill (°F) Heat Index (°F) altimeter (in) sea level (mb) 1 hr 3 hr 6 hr
6 hour
Temperature (ºF) Pressure Precipitation (in)